Weather in Savgachevo

Russia / Republic of Tatarstan     54°59′51″N   50°46′22″E
temp.,
°C
wind,
m/s
gust,
m/s
humid.,
%
clouds,
%
prec.,
mm/h
press.,
hPa
HPBL,
m
17 may, tue
tue1700:00+7wsw33885 0.0 100134
03:00+6w33915 0.0 100142
06:00+9wnw238464 0.0 1000177
09:00+12wsw1170100 0.0 1000846
12:00+9wsw7894100 1.8 1001490
15:00+9w478561 2.2 1002736
18:00+10w357690 0.1 1001436
21:00+7sw339190 0.1 100243
18 may, wed
wed1800:00+5sw33935 0.0 100148
03:00+4sw22945 0.0 100127
06:00+7sw35875 0.0 1001217
09:00+11wsw4571100 0.1 10011029
12:00+11w6670100 0.3 10011125
15:00+8wnw5894100 2.9 1002550
18:00+7n4109196 0.4 1004596
21:00+5wnw339570 0.4 100749
19 may, thu
thu1900:00+5w339494 0.0 100738
03:00+6w369298 0.0 1008169
06:00+7wsw4790100 0.3 1008352
09:00+7w5687100 0.8 1009807
12:00+6wnw5787100 0.1 1010761
15:00+9wnw576484 0.3 10101498
18:00+8wnw3470100 0.1 1009394
21:00+6ssw2273100 0.1 100913
20 may, fri
fri2000:00+5wnw2496100 1.1 1009241
03:00+5n4495100 2.1 1009666
06:00+4nw3693100 0.3 1010602
09:00+7nnw5675100 0.8 1009992
12:00+7nw6776100 1.5 10091071
15:00+9nw6867100 2.3 10091336
18:00+7nnw7117696 1.1 1009773
21:00+5nnw61186100 1.2 1011592
21 may, sat
sat2100:00+4nnw5109299 0.1 1011591
03:00+2nw4109534 0.1 1011277
06:00+5nw478337 0.0 1011304
09:00+9nw585991 0.1 10101631
12:00+9nw575877 0.4 10091597
15:00+10nw5750100 0.6 10092145
18:00+9nnw466268 0.1 1008297
21:00+5nnw33705 0.1 100827